Location: Devore Heights
(34.2372°N, 117.4156°W)
Time: 22:42:09
(UTC+00:00)

Transit 4A - Pass Details

Date: 20 September 2024
Orbit: 864 x 978 km, 66.8° (Epoch: 13 October)

Event Time Altitude Azimuth Distance (km) Brightness Sun altitude
Rises 10:35:40 0° 249° (WSW) 3,450 - -36.5°
Reaches altitude 10° 10:38:55 10° 267° (W) 2,529 - -35.9°
Maximum altitude 10:42:54 19° 311° (NW) 2,010 - -35.2°
Exits shadow 10:45:51 13° 345° (NNW) 2,333 10.1 -34.7°
Drops below altitude 10° 10:46:57 10° 354° (N) 2,580 10.4 -34.5°
Sets 10:50:20 0° 12° (NNE) 3,548 11.4 -33.9°
